Weather History for GMME - September, 2012

Change the Weather History Date:

Monday, September 24, 2012

  Actual Average Record
Temperature  
Mean Temperature 72 °F -  
Max Temperature 84 °F 74 °F 86 °F (1997)
Min Temperature 59 °F 58 °F 57 °F (1996)
Cooling Degree Days 6    
Growing Degree Days 22 (Base 50)    
Moisture  
Dew Point 66 °F    
Average Humidity 79    
Maximum Humidity 94    
Minimum Humidity 52    
Precipitation  
Precipitation 0.00 in 0.05 in - ()
Sea Level Pressure  
Sea Level Pressure 30.07 in    
Wind  
Wind Speed 5 mph ()    
Max Wind Speed 17 mph    
Max Gust Speed -    
Visibility 4.2 miles    
Events Rain    
Averages and records for this station are not official NWS values.
T = Trace of Precipitation, MM = Missing Value Source: Averaged Metar Reports

Daily Weather History Graph

Daily Weather History Graph

Search for Another Location

Airport or City:

Trip Planner

Search our weather history database for the weather conditions in past years. The results will help you decide how hot, cold, wet, or windy it might be!

Date:

Astronomy

Sep. 24, 2012 Rise Set
Actual Time 7:16 AM WEST 7:20 PM WEST
Civil Twilight 6:51 AM WEST 7:45 PM WEST
Nautical Twilight 6:22 AM WEST 8:14 PM WEST
Astronomical Twilight 5:53 AM WEST 8:43 PM WEST
Moon 3:44 PM WEST (9/24) 1:32 AM WEST (9/24)
Length of Visible Light 12h 53m
Length of Day
12h 03m
Waxing Gibbous, 68% of the Moon is Illuminated
Sep 24
Waxing Gibbous
Sep 30
Full
Oct 8
Last Quarter
Oct 15
New
Oct 22
First Quarter

Hourly Weather History & Observations

Time (WEST) Temp. Heat Index Dew Point Humidity Pressure Visibility Wind Dir Wind Speed Gust Speed Precip Events Conditions
12:00 AM 71.6 °F - 68.0 °F 88% 30.12 in 3.7 mi NW 4.6 mph - N/A   Scattered Clouds
12:30 AM 71.6 °F - 68.0 °F 88% 30.12 in 3.7 mi Calm Calm - N/A   Scattered Clouds
1:00 AM 71 °F - 68 °F 87% 30.13 in 4 mi South 2.3 mph - -   Partly Cloudy
1:00 AM 71.6 °F - 68.0 °F 88% 30.12 in 3.7 mi South 1.2 mph - N/A   Scattered Clouds
1:30 AM 71.6 °F - 68.0 °F 88% 30.12 in 3.7 mi South 5.8 mph - N/A   Scattered Clouds
2:00 AM 71.6 °F - 68.0 °F 88% 30.12 in 3.7 mi South 3.5 mph - N/A   Scattered Clouds
2:30 AM 71.6 °F - 68.0 °F 88% 30.12 in 3.7 mi Calm Calm - N/A   Scattered Clouds
3:00 AM 71.6 °F - 68.0 °F 88% 30.12 in 3.7 mi Calm Calm - N/A   Scattered Clouds
3:30 AM 69.8 °F - 68.0 °F 94% 30.12 in 3.7 mi Calm Calm - N/A   Scattered Clouds
4:00 AM 70 °F - 67 °F 88% 30.11 in 4 mi Calm Calm - -   Partly Cloudy
4:00 AM 69.8 °F - 68.0 °F 94% 30.12 in 3.7 mi Calm Calm - N/A   Scattered Clouds
4:30 AM 69.8 °F - 68.0 °F 94% 30.09 in - Calm Calm - N/A   Unknown
5:00 AM 69.8 °F - 68.0 °F 94% 30.09 in 3.7 mi SSE 3.5 mph - N/A   Scattered Clouds
5:30 AM 69.8 °F - 68.0 °F 94% 30.09 in 3.7 mi Calm Calm - N/A   Scattered Clouds
6:00 AM 69.8 °F - 68.0 °F 94% 30.09 in 3.7 mi Calm Calm - N/A   Scattered Clouds
6:30 AM 69.8 °F - 68.0 °F 94% 30.09 in 3.7 mi Calm Calm - N/A   Scattered Clouds
7:00 AM 70 °F - 67 °F 87% 30.09 in 4 mi NNE 3.5 mph - -   Partly Cloudy
7:00 AM 69.8 °F - 66.2 °F 88% 30.09 in 3.7 mi NNE 3.5 mph - N/A   Scattered Clouds
8:00 AM 71.6 °F - 68.0 °F 88% 30.09 in 3.7 mi ESE 3.5 mph - N/A   Mostly Cloudy
8:30 AM 71.6 °F - 68.0 °F 88% 30.09 in 3.7 mi ENE 4.6 mph - N/A   Mostly Cloudy
9:00 AM 71.6 °F - 68.0 °F 88% 30.09 in 3.1 mi NNE 5.8 mph - N/A Rain Rain
9:30 AM 73.4 °F - 68.0 °F 83% 30.09 in 3.1 mi NE 8.1 mph - N/A Rain Rain
10:00 AM 74 °F - 68 °F 76% 30.09 in 4 mi NE 8.1 mph - - Rain Light Rain
10:00 AM 73.4 °F - 68.0 °F 83% 30.09 in 3.7 mi NE 8.1 mph - N/A   Mostly Cloudy
11:00 AM 78.8 °F - 66.2 °F 65% 30.09 in 5.0 mi East 6.9 mph - N/A   Scattered Clouds
11:30 AM 82.4 °F 83.9 °F 64.4 °F 54% 30.06 in 5.0 mi East 5.8 mph - N/A   Scattered Clouds
12:00 PM 84.2 °F 86.6 °F 66.2 °F 55% 30.06 in - NNE 8.1 mph - N/A   Clear
12:30 PM 84.2 °F 86.6 °F 66.2 °F 55% 30.06 in - North 12.7 mph - N/A   Clear
1:00 PM 82 °F - 67 °F 52% 30.05 in 6 mi NNW 12.7 mph - -   Partly Cloudy
1:00 PM 82.4 °F 84.6 °F 66.2 °F 58% 30.06 in - NNW 12.7 mph - N/A   Clear
1:30 PM 82.4 °F 84.6 °F 66.2 °F 58% 30.04 in - North 13.8 mph - N/A   Clear
2:00 PM 80.6 °F 82.7 °F 66.2 °F 61% 30.04 in - North 15.0 mph - N/A   Clear
2:30 PM 80.6 °F 82.7 °F 66.2 °F 61% 30.04 in - North 17.3 mph - N/A   Clear
3:00 PM 78.8 °F - 68.0 °F 69% 30.04 in - North 17.3 mph - N/A   Clear
3:30 PM 78.8 °F - 66.2 °F 65% 30.04 in - North 17.3 mph - N/A   Clear
4:00 PM 78 °F - 65 °F 56% 30.02 in 6 mi North 17.3 mph - -   Partly Cloudy
4:00 PM 77.0 °F - 66.2 °F 69% 30.01 in - North 17.3 mph - N/A   Clear
4:30 PM 78.8 °F - 64.4 °F 61% 30.01 in - NNE 16.1 mph - N/A   Clear
5:00 PM 77.0 °F - 64.4 °F 65% 30.01 in - North 15.0 mph - N/A   Clear
5:30 PM 75.2 °F - 64.4 °F 69% 30.01 in - North 16.1 mph - N/A   Clear
6:00 PM 75.2 °F - 62.6 °F 65% 30.04 in - North 15.0 mph - N/A   Clear
6:30 PM 73.4 °F - 62.6 °F 69% 30.04 in - North 15.0 mph - N/A   Clear
7:00 PM 72 °F - 64 °F 69% 30.04 in 6 mi North 12.7 mph - -   Scattered Clouds
7:00 PM 71.6 °F - 64.4 °F 78% 30.04 in - North 12.7 mph - N/A   Clear
7:30 PM 71.6 °F - 64.4 °F 78% 30.04 in 5.0 mi NNE 12.7 mph - N/A   Unknown
8:00 PM 69.8 °F - 64.4 °F 83% 30.04 in 5.0 mi NNE 9.2 mph - N/A   Unknown
8:30 PM 69.8 °F - 64.4 °F 83% 30.04 in 5.0 mi NNE 6.9 mph - N/A   Unknown
9:00 PM 69.8 °F - 64.4 °F 83% 30.06 in 5.0 mi NNE 5.8 mph - N/A   Unknown
9:30 PM 68.0 °F - 64.4 °F 88% 30.06 in 5.0 mi NNE 4.6 mph - N/A   Unknown
10:00 PM 66 °F - 63 °F 86% 30.08 in 5 mi Calm Calm - -   Scattered Clouds
10:00 PM 66.2 °F - 62.6 °F 88% 30.06 in 5.0 mi Calm Calm - N/A   Unknown
10:30 PM 64.4 °F - 62.6 °F 94% 30.06 in 5.0 mi Calm Calm - N/A   Unknown
11:30 PM 64.4 °F - 62.6 °F 94% 30.06 in 3.7 mi Calm Calm - N/A   Unknown